Herat, Afghanistan

6:13 PM AFT on August 24, 2016 (GMT +0430)
Herat

Weather History for OAHR - November, 2013

Change the Weather History Date:

Monday, November 4, 2013

  Actual Average Record
Temperature  
Mean Temperature 60 °F -  
Max Temperature 68 °F 63 °F - ()
Min Temperature 51 °F 33 °F - ()
Degree Days  
Heating Degree Days 6    
Growing Degree Days 10 (Base 50)    
Moisture  
Dew Point 35 °F    
Average Humidity 45    
Maximum Humidity 82    
Minimum Humidity 26    
Precipitation  
Precipitation 0.00 in 0.02 in - ()
Sea Level Pressure  
Sea Level Pressure 30.17 in    
Wind  
Wind Speed 3 mph ()    
Max Wind Speed 6 mph    
Max Gust Speed -    
Visibility 5.7 miles    
Events Rain    
T = Trace of Precipitation, MM = Missing Value Source: Averaged Metar Reports

Daily Weather History Graph

Daily Weather History Graph

Search for Another Location

Airport or City:

Trip Planner

Search our weather history database for the weather conditions in past years. The results will help you decide how hot, cold, wet, or windy it might be!

Date:

Astronomy

Nov. 04, 2013 Rise Set
Actual Time 6:43 AM AFT 5:25 PM AFT
Civil Twilight 6:17 AM AFT 5:51 PM AFT
Nautical Twilight 5:47 AM AFT 6:21 PM AFT
Astronomical Twilight 5:18 AM AFT 6:50 PM AFT
Moon 7:24 AM AFT (11/4) 6:10 PM AFT (11/4)
Length of Visible Light 11h 33m
Length of Day
10h 41m
New Moon, 1% of the Moon is Illuminated
Nov 4
New Moon
Nov 10
First Quarter
Nov 17
Full
Nov 26
Last Quarter
Dec 3
New

Hourly Weather History & Observations

Time (AFT) Temp. Dew Point Humidity Pressure Visibility Wind Dir Wind Speed Gust Speed Precip Events Conditions
12:24 AM 55.4 °F 21.2 °F 26% 30.18 in 6.2 mi South 3.5 mph - N/A   Unknown
1:24 AM 55.4 °F 23.0 °F 29% 30.18 in 6.2 mi SE 2.3 mph - N/A   Unknown
2:24 AM 55.4 °F 24.8 °F 31% 30.18 in 6.2 mi NNW 3.5 mph - N/A   Unknown
3:24 AM 53.6 °F 30.2 °F 41% 30.18 in - NNW 3.5 mph - N/A   Clear
4:24 AM 53.6 °F 26.6 °F 35% 30.18 in 6.2 mi SSE 3.5 mph - N/A   Unknown
5:24 AM 53.6 °F 28.4 °F 38% 30.18 in - South 3.5 mph - N/A   Clear
6:24 AM 51.8 °F 32.0 °F 47% 30.18 in 6.2 mi Variable 2.3 mph - N/A   Mostly Cloudy
7:25 AM 51.8 °F 35.6 °F 54% 30.18 in 6.2 mi Variable 3.5 mph - N/A   Scattered Clouds
8:24 AM 51.8 °F 35.6 °F 54% 30.18 in 6.2 mi SE 4.6 mph - N/A   Mostly Cloudy
9:24 AM 55.4 °F 30.2 °F 38% 30.18 in 6.2 mi ESE 5.8 mph - N/A   Mostly Cloudy
10:24 AM 60.8 °F 28.4 °F 29% 30.21 in - Variable 2.3 mph - N/A   Clear
11:24 AM 60.8 °F 32.0 °F 34% 30.18 in 6.2 mi WNW 4.6 mph - N/A   Mostly Cloudy
12:24 PM 68.0 °F 33.8 °F 28% - 6.2 mi NW 4.6 mph - N/A   Mostly Cloudy
1:24 PM 64.4 °F 35.6 °F 34% 30.12 in 5.0 mi WNW 5.8 mph - N/A   Overcast
2:24 PM 64.4 °F 35.6 °F 34% 30.12 in 5.0 mi WNW 4.6 mph - N/A   Overcast
3:25 PM 62.6 °F 39.2 °F 42% 30.12 in 5.0 mi NW 3.5 mph - N/A   Mostly Cloudy
4:25 PM 64.4 °F 39.2 °F 40% 30.12 in 5.0 mi NW 3.5 mph - N/A   Mostly Cloudy
5:24 PM 62.6 °F 39.2 °F 42% 30.12 in 5.0 mi West 4.6 mph - N/A   Mostly Cloudy
6:25 PM 60.8 °F 41.0 °F 48% - 5.0 mi Variable 3.5 mph - N/A   Mostly Cloudy
7:24 PM 57.2 °F 44.6 °F 63% 30.15 in 5.0 mi West 2.3 mph - N/A   Mostly Cloudy
8:24 PM 59.0 °F 44.6 °F 59% 30.18 in 5.0 mi Variable 2.3 mph - N/A   Mostly Cloudy
9:25 PM 57.2 °F 44.6 °F 63% 30.18 in 5.6 mi Variable 3.5 mph - N/A   Mostly Cloudy
10:25 PM 53.6 °F 48.2 °F 82% 30.18 in - NW 3.5 mph - N/A Rain Light Rain
11:24 PM 53.6 °F 46.4 °F 77% 30.18 in 6.2 mi WNW 2.3 mph - N/A Rain Light Rain Showers